User: anonymous   Login
Location: Kott?ru
(16.6209°N, 80.6208°E)
Time: 19:09:35
(UTC+00:00)
Language:

BlueWalker 3 - Orbit

View from above orbital plane
View from above orbital plane
View from above satellite
View from above satellite

Ground track
Ground track

The orbit data is extracted from the following two-line orbital elements,

1 53807U 22111AL  23087.23825227  .00005139  00000-0  24974-3 0  9998
2 53807  53.1993  83.3907 0012984 156.8168 203.3417 15.20033677 30135
Epoch (UTC): 28 March 2023 05:43:04
Eccentricity: 0.0012984
inclination: 53.1993°
perigee height: 497 km
apogee height: 514 km
right ascension of ascending node: 83.3907°
argument of perigee: 156.8168°
revolutions per day: 15.20033677
mean anomaly at epoch: 203.3417°
orbit number at epoch: 3013

The dashed part of the orbit path shows where the satellite is in the earth's shadow,  

DLR